CAPE
911 934 914 906 913 888 879 947 993 1048 1198 1405 1401 1385 1452 1463 1588 1672 1642 1718 1707 1805 1806 1767 1764 1719 1738 1765 1778 1851 1837 1885 1920 1863 1906 1927 1871 2031 2146 2092 2140 2411 2336 2534 2660 2917 3279 3333 3344 3461 3536 3585 3540 3626 3686 3602 3492 3412 3534 3612 3375 3204 3278
753 851 891 866 898 899 945 1024 999 1039 1215 1323 1364 1415 1380 1526 1704 1849 1785 1910 1844 1890 1899 1798 1812 1822 1838 1862 1842 1885 1838 1812 1829 1822 1870 1976 2074 2240 2143 2214 2200 2516 2643 2593 2784 3152 3279 3308 3198 3403 3474 3512 3412 3578 3516 3553 3578 3545 3456 3642 3272 3083 3032
547 741 849 840 827 875 1012 982 1094 1002 1052 1129 1257 1340 1389 1637 1885 1828 1884 1908 1898 1940 1927 1827 1905 1902 1866 1923 1895 1904 1856 1821 1788 1803 1781 1791 1889 1630 1907 2123 2203 2270 2310 2544 2874 2995 2987 3052 3163 3285 3382 3373 3296 3535 3517 3459 3560 3534 3604 3809 3485 3023 3059
428 631 801 859 887 938 1017 1059 1042 944 977 1029 1136 1294 1446 1834 1806 1908 1996 1876 1938 1982 2044 1917 1948 1913 1938 2021 1975 1981 1889 1859 1832 1696 1588 1629 1697 1685 1945 2110 2121 2013 2312 2343 2357 2561 2562 2799 3023 3184 3244 3313 3473 3477 3446 3381 3330 3530 3623 3753 3455 3126 3044
425 573 715 866 884 993 1015 937 1010 1004 957 957 1087 1273 1369 1665 1592 1801 1850 1791 1775 1860 1894 1909 1849 1945 2069 2064 1974 1951 1934 1915 1893 1733 1686 1649 1788 1906 1902 1704 1873 1900 1996 2053 2262 2575 2681 2854 2704 2905 3106 3229 3294 3441 3470 3517 3374 3608 3523 3365 3169 2911 2890
339 509 622 820 857 868 883 928 931 916 914 914 1036 1240 1335 1373 1375 1484 1623 1824 1782 1796 1915 1920 1881 2034 2154 2098 2009 1981 2026 2029 1994 1949 1862 1845 1926 1879 1767 1724 1732 1803 1801 2057 2040 2155 2504 2544 2522 2683 2727 2841 2805 2808 3042 3316 3343 3428 3516 3362 3074 2936 2836
311 461 556 672 757 855 889 887 846 871 900 902 971 1134 1210 1203 1300 1332 1439 1624 1687 1817 1836 1848 1831 1978 2263 2160 2132 2217 2205 2111 2072 1997 1902 1914 1943 1849 1789 1824 1807 1739 1764 1995 1959 1985 2156 2393 2529 2669 2716 2592 2747 2705 2962 3341 3326 3413 3539 3395 3069 2896 2970
407 539 630 637 652 746 827 881 844 832 837 860 907 1040 1023 1108 1215 1292 1397 1509 1628 1727 1771 1755 1776 2028 2111 2129 2160 2202 2264 2124 2065 2053 1951 1911 1872 1871 1840 1896 1909 1847 1868 1957 2017 1979 1930 2218 2322 2594 2650 2550 2737 2965 3041 3414 3592 3368 3434 3421 3270 3140 2918
291 563 553 483 572 619 736 883 867 832 898 926 949 1077 1052 1100 1183 1261 1378 1442 1531 1589 1684 1640 1734 1820 2138 2224 2270 2307 2240 2173 2192 2112 2051 1911 1866 1787 1726 1821 1882 1873 1877 1710 1728 1972 1884 2057 2099 2528 2701 2650 2761 3071 3124 3338 3369 3300 3340 3443 3522 3460 3286
205 581 714 552 522 488 644 853 924 974 984 1036 1087 1158 1060 1069 1183 1254 1357 1401 1464 1514 1581 1599 1696 1811 2126 2153 2118 2186 2250 2255 2192 2020 1998 1897 1870 1812 1739 1691 1798 1892 1806 1711 1664 1871 1995 1997 2124 2538 2860 2758 2829 3040 3080 3156 3206 3216 3312 3468 3523 3579 3666
89 719 856 576 587 630 769 840 987 1214 1199 1221 1256 1055 1186 1159 1180 1262 1377 1396 1454 1472 1542 1607 1694 1772 1950 1949 1941 2000 2200 2190 2096 2039 1990 1889 1849 1833 1742 1675 1665 1776 1759 1722 1669 1766 1987 2116 2226 2483 2723 2510 2708 2899 2971 2994 3126 3212 3029 3143 3314 3424 3437
80 476 948 774 799 847 752 1077 1185 1343 1531 1452 1105 975 1258 1387 1235 1213 1362 1447 1464 1467 1565 1574 1628 1716 1844 1826 1825 2009 2178 2197 2068 1952 1956 1914 1838 1809 1748 1690 1643 1684 1778 1759 1776 1798 1857 2099 2142 2232 2541 2516 2580 2791 2977 3033 3108 3212 3186 2939 3144 3313 3314
43 198 597 610 936 917 1303 1430 1622 1716 1749 1317 1008 972 1202 1158 1185 1222 1515 1508 1419 1477 1534 1639 1663 1790 1794 1818 1802 2096 2259 2166 2071 2009 1938 2002 1897 1852 1802 1708 1651 1632 1726 1783 1822 1844 1868 1911 2166 2264 2359 2589 2638 2632 2907 3048 3083 3217 3247 3205 3187 3307 3428
60 99 171 642 861 1092 1346 1718 1788 1782 1681 1284 1050 1085 1042 1068 1118 1205 1572 1506 1453 1493 1577 1644 1727 1828 1874 1837 1913 2214 2366 2251 2169 2040 2068 2052 2119 2035 1886 1807 1743 1768 1740 1820 1871 1840 1905 1927 2022 2271 2345 2421 2583 2687 2814 3058 3096 3162 3278 3276 3220 3243 3325
0 4 179 320 882 1396 1428 1445 1742 1858 1653 1470 1211 1167 1118 1132 1168 1370 1591 1487 1549 1511 1634 1779 1817 1928 1880 1940 2030 2353 2470 2325 2277 2196 2194 2171 2268 2177 2042 1955 1923 1890 1897 1915 1897 1848 1905 1976 1985 2176 2345 2356 2524 2677 2748 2870 2992 2976 3160 3188 3264 3234 3130
0 0 0 64 575 751 1476 1619 1678 2016 1954 1788 1273 1310 1163 1196 1378 1482 1480 1506 1485 1629 1671 1800 1950 1990 1890 1996 2231 2510 2462 2487 2416 2369 2356 2328 2411 2388 2218 2108 2075 1991 1996 2011 2012 1993 1994 2000 2073 2098 2243 2378 2547 2722 2780 2828 2891 2813 2483 2587 3061 3251 3105
0 0 0 0 72 801 1114 1342 1628 1929 1926 1817 1693 1602 1296 1492 1383 1279 1212 1474 1516 1610 1641 1952 2164 2122 2009 2133 2381 2437 2432 2554 2484 2438 2429 2424 2401 2412 2374 2287 2234 2184 2183 2131 2100 2066 2148 2144 2092 2092 2090 2214 2298 2488 2593 2671 2716 2452 2236 2116 2102 2642 3175
629 0 0 0 0 296 1012 1152 1619 1831 1835 1646 1532 1613 1514 1627 1370 1396 1256 1407 1410 1575 1706 1742 1923 2017 2219 2277 2411 2407 2500 2439 2412 2376 2405 2408 2353 2386 2352 2325 2286 2338 2333 2227 2220 2304 2221 2263 2156 2220 2079 2052 2164 2252 2397 2533 2315 2165 2032 1947 1927 1944 2596
1974 582 0 0 0 182 497 836 1314 1728 1564 1567 1475 1462 1437 1572 1426 1510 1460 1715 1571 1520 1558 1674 1774 1967 2279 2194 2346 2489 2464 2403 2434 2424 2390 2388 2348 2371 2379 2389 2395 2363 2288 2175 2210 2255 2345 2290 2183 2251 2260 2191 2315 2267 2263 2403 2162 1964 1824 1789 1766 1837 1942
2212 1025 104 1 0 1 358 977 1219 1594 1668 1828 1695 1536 1504 1497 1451 1637 1640 1787 1895 1698 1978 2035 2018 2240 2167 2310 2431 2473 2469 2548 2474 2448 2431 2443 2425 2448 2431 2404 2372 2327 2274 2217 2290 2341 2375 2243 2302 2345 2444 2383 2393 2483 2397 2339 2230 2003 1804 1675 1651 1679 1722
2429 1615 191 38 100 34 840 1385 1558 1724 1920 1651 1561 1619 1684 1632 1611 1850 1996 2078 1880 2026 2418 2246 2163 2357 2307 2422 2471 2538 2540 2589 2513 2537 2528 2552 2512 2481 2464 2429 2445 2375 2291 2192 2250 2404 2404 2332 2316 2366 2408 2412 2330 2407 2411 2254 2053 2017 1875 1724 1650 1630 1660
2287 2380 1463 248 504 734 1284 1027 1319 1364 1558 1514 1526 1598 1594 1635 1594 1649 1803 1921 2052 2089 2316 2318 2410 2374 2443 2454 2481 2522 2541 2568 2586 2631 2647 2637 2560 2512 2491 2522 2545 2548 2431 2269 2195 2253 2263 2400 2303 2338 2410 2395 2343 2211 2247 2231 1778 1752 1747 1724 1692 1674 1683
2064 2499 2139 1035 682 997 1653 1420 1594 1337 1885 1613 1553 1561 1591 1642 1673 1772 2048 2079 2141 2476 2435 2473 2559 2510 2492 2500 2512 2462 2480 2477 2544 2698 2733 2700 2633 2596 2562 2624 2643 2617 2545 2432 2298 2289 2315 2380 2357 2402 2401 2390 2376 2362 2338 2350 2044 1657 1508 1460 1486 1539 1573
2167 2536 2181 919 885 1418 1662 1514 1626 2097 1516 1722 1574 1642 1842 1875 1921 2359 2407 2270 2598 2695 2656 2562 2552 2624 2685 2485 2526 2536 2531 2561 2626 2773 2802 2850 2783 2716 2654 2640 2621 2630 2600 2563 2444 2312 2418 2450 2455 2468 2499 2410 2430 2390 2480 2437 2339 1890 1673 1527 1404 1345 1600
2260 2484 2533 1715 988 1090 1250 1822 1731 1721 1896 1754 1842 2114 2324 2211 2313 2399 2611 2771 2557 2413 2515 2563 2596 2740 2832 2786 2756 2741 2740 2733 2796 2888 2901 2968 2915 2800 2781 2772 2784 2675 2703 2632 2553 2500 2598 2521 2543 2598 2608 2524 2247 2301 2322 2446 2406 2214 2137 2012 1872 1717 1805
1971 2214 2520 2357 1559 1422 2064 2550 2347 1749 1909 1809 2181 2156 2302 2269 2110 2182 2452 2683 2540 2531 2655 2750 2916 2970 2947 2869 2933 2971 2989 2954 3148 3126 2948 3038 3052 3038 3024 3028 2897 2918 2915 2822 2696 2714 2734 2695 2685 2689 2732 2457 2498 2532 2528 2511 2503 2490 2421 2359 2278 2187 2078
1728 1976 2221 2445 2652 2469 2045 2162 2071 1888 1716 2230 2754 2219 2071 2065 2174 2705 2942 2913 2759 2802 2849 3107 3280 3386 3374 3290 3205 3219 3244 3138 3260 3222 3074 3122 3206 3186 3130 3146 3123 3034 3078 2984 2850 2903 2964 2934 2791 2636 2692 2748 2808 2827 2832 2849 2827 2810 2793 2726 2628 2510 2382
1908 1812 2048 2191 2536 2824 2856 1995 2430 2354 2211 2695 2228 2151 2339 2546 2668 2869 3062 2956 2960 3169 3030 3522 3806 3750 3803 3890 3570 3437 3446 3417 3511 3433 3249 3346 3463 3552 3508 3389 3238 3207 3218 2840 2999 3158 3206 3204 2873 2957 3035 3112 3179 3207 3208 3202 3193 3158 3119 3014 2873 2754 2626
1999 1881 1785 2002 2231 2393 2699 3177 3256 2878 2381 2014 1970 2015 2149 2183 2759 2884 3026 3053 3299 3108 3276 3543 3454 3774 3815 3870 3656 3812 3717 3695 3732 3611 3496 3615 3752 3866 3798 3736 3579 3549 3556 3503 3417 3430 3244 3311 3167 3182 3242 3286 3323 3351 3389 3404 3408 3373 3368 3314 3203 3079 2924
2247 2288 2059 1846 1896 2003 2537 2895 3021 3061 2873 2120 2218 2423 2450 2573 3273 3301 3333 3241 3527 3543 3539 3733 3807 3883 3886 3944 3971 4049 3929 3977 4012 3941 3777 3960 4124 4072 4005 4016 3938 3842 3820 3781 3646 3515 3248 3230 3276 3303 3349 3369 3410 3425 3462 3587 3540 3554 3534 3510 3464 3353 3196
2563 2588 2580 2553 2509 2340 2242 2570 2899 2992 3160 3465 3654 3380 3202 3300 3677 3742 3616 4507 4337 4082 3894 3993 3995 3972 3969 3859 3947 4108 4028 4157 4144 4132 4129 4270 4358 4271 4214 4235 4176 4028 3987 3814 3687 3439 3380 3404 3414 3452 3464 3498 3522 3551 3592 3620 3638 3652 3628 3594 3560 3505 3395
2702 2704 2751 2795 2831 2774 2595 2487 2518 2704 2846 3020 3463 3970 4326 4217 4112 4223 4664 4367 4572 4455 4522 4359 4226 4145 3979 3920 4064 4172 4141 4335 4298 4490 4494 4496 4370 4271 4318 4202 4251 4120 4167 3959 3580 3509 3517 3532 3527 3578 3596 3613 3648 3660 3724 3733 3733 3731 3710 3672 3611 3560 3501
2735 2800 2918 3054 2992 2994 3082 2983 2808 2600 2520 2549 2803 3204 3588 4014 4267 4406 4310 4529 4698 4835 5104 4818 4684 4667 4741 4727 4482 4454 4320 4280 4142 4292 4438 4503 4375 4383 4452 4368 4412 4262 4279 4126 3954 3702 3810 3629 3646 3666 3671 3688 3715 3751 3930 3813 3807 3786 3764 3720 3694 3634 3562
2778 2800 2923 2927 3020 3194 3239 3252 3245 3058 2860 2826 2854 2946 3078 3309 3638 3835 4126 4442 4664 4696 4870 4992 4827 4748 4650 4691 4757 4724 4766 4729 4500 4592 4588 4650 4518 4473 4492 4445 4385 4449 4423 4269 4132 4081 3725 3854 3741 3657 3663 3719 3952 4048 4069 3823 3820 3806 3794 3770 3754 3694 3640
2708 2785 2969 2914 2997 3072 3211 3273 3371 3422 3328 3198 3244 3295 3390 3511 3701 3927 4256 4571 4780 5164 5103 5011 5153 5181 4920 4578 4431 4313 4270 4486 4634 4643 4700 4857 4930 4316 4261 4329 4555 4631 4578 4156 4460 4345 4217 4207 4114 4156 4014 3977 4104 4187 4183 4164 3908 3824 3778 3792 3799 3798 3773
2565 2686 2851 2916 3043 3120 3111 3154 3274 3430 3578 3539 3598 3596 3593 3651 3725 3814 3899 4095 5016 5691 5423 4853 5021 5572 5565 5226 5056 4871 4420 4413 4508 4347 4478 4414 3810 3850 3910 3944 4131 4182 4164 4920 4204 3935 3788 3807 4500 4242 4167 3936 4141 4282 4430 4459 3927 3931 3976 3958 3938 3918 3884
2328 2578 2792 2733 2884 2998 3116 3129 3195 3301 3422 3487 3560 3586 3615 3750 3771 3796 3784 3814 4106 5092 5684 5724 5678 5599 5334 5085 5330 5118 5022 4832 4754 4950 4668 3794 3596 3574 3578 3621 3737 3842 3924 3932 4056 3976 3912 3932 3966 3973 3972 4554 4724 4065 4070 4066 4063 4087 4072 4052 4031 4010 4007
1992 2212 2393 2519 2492 2373 2316 2434 2483 2282 2239 2434 2506 2802 2696 2901 2984 2936 3183 3464 3706 3912 4747 5505 5760 5754 5572 5502 5221 4561 4911 4935 4468 4018 3956 3872 3765 3733 3654 3641 3707 3713 3796 3891 3959 3939 3994 4055 4083 4072 4058 4090 4451 4201 4293 4286 4250 4236 4247 4219 4191 4165 4154
Wind_Speed
19 16 14 14 12 10 8 6 4 2 1 2 5 9 9 6 3 5 7 8 6 7 8 9 10 11 9 9 8 7 6 8 9 9 10 10 10 9 7 7 7 7 7 8 10 12 12 10 10 10 10 10 10 10 9 9 10 10 12 13 15 16 16
21 17 15 16 14 11 9 9 9 7 4 2 1 7 8 9 5 4 6 8 7 7 8 9 10 12 12 12 12 8 6 7 8 11 11 12 11 10 8 7 6 6 6 8 10 10 8 7 7 7 6 6 7 6 6 6 7 7 7 9 11 13 14
20 18 16 16 13 12 11 12 12 9 5 4 2 4 7 7 6 5 7 8 8 9 10 9 10 12 14 15 13 9 8 8 9 9 9 10 9 7 8 8 7 8 7 7 8 8 7 6 5 4 4 3 3 3 4 4 5 5 5 5 6 9 10
21 17 14 12 11 13 14 13 12 11 7 4 4 5 5 4 6 6 7 8 8 9 8 9 11 13 16 15 14 13 10 9 10 10 9 11 11 10 11 10 9 8 8 8 8 8 7 5 3 3 1 1 0 1 3 3 4 5 5 5 4 5 7
19 17 15 14 13 18 17 14 14 13 8 3 2 3 3 6 7 6 7 7 7 6 8 11 14 16 19 17 19 17 13 11 12 13 13 13 13 12 11 9 9 7 8 8 8 7 6 5 3 2 2 1 1 2 3 3 3 4 4 4 3 3 4
20 20 17 13 13 14 14 12 12 11 8 4 3 6 7 8 7 6 6 8 8 9 12 13 13 16 17 17 18 18 16 14 15 14 14 14 13 13 12 11 10 8 8 7 8 7 6 5 4 3 2 2 2 2 2 3 4 4 5 5 3 2 2
20 20 18 14 15 15 13 11 10 10 10 8 8 10 10 9 7 7 7 7 8 9 10 11 12 15 18 19 18 18 16 15 15 14 15 14 14 14 14 14 13 11 10 11 9 8 7 6 5 4 4 2 3 2 2 2 3 4 5 5 3 2 1
21 23 19 16 16 16 14 12 12 14 16 17 15 12 10 8 8 8 7 7 8 9 10 10 12 15 17 19 19 16 17 16 17 17 17 15 15 15 15 15 15 14 13 11 10 10 8 7 6 6 5 3 2 3 2 2 3 4 6 6 5 4 3
21 22 20 16 14 15 15 16 18 20 19 17 14 12 11 10 8 7 7 9 9 8 8 9 12 15 19 20 19 17 18 18 19 19 16 14 16 15 15 16 16 16 13 12 12 12 10 8 6 7 6 5 4 4 3 2 2 3 4 6 6 6 5
25 26 25 21 18 18 19 22 26 28 25 23 21 19 15 12 9 8 8 9 10 8 8 10 14 16 18 19 19 19 20 20 20 18 16 15 16 15 15 17 17 16 14 13 13 13 12 9 8 8 8 7 6 5 4 3 3 3 5 6 7 7 6
nan 28 28 24 22 21 23 23 24 25 24 23 22 19 18 15 12 11 9 10 10 9 11 13 15 16 17 17 18 19 20 19 19 18 16 15 17 16 16 17 18 17 14 14 13 12 13 12 10 9 9 8 6 5 4 3 3 4 4 5 6 7 7
nan 33 30 27 26 26 22 20 22 25 26 26 21 19 20 18 15 13 12 10 11 12 13 14 16 17 18 18 18 19 18 19 18 16 16 16 17 17 18 18 18 17 16 14 13 13 13 12 12 11 10 8 7 5 5 5 4 4 4 4 6 7 7
nan 33 32 30 30 27 27 28 26 25 25 24 20 20 20 18 16 16 16 14 13 14 15 16 17 18 19 18 17 19 18 18 17 18 18 19 19 21 21 19 18 17 16 16 14 13 13 12 11 12 11 9 7 5 5 5 5 5 5 5 5 6 7
nan nan 34 35 34 32 28 25 25 24 22 20 20 21 22 19 18 18 19 17 16 16 17 19 18 19 19 19 18 19 18 17 18 18 20 21 22 22 21 21 20 18 18 17 15 13 13 12 12 12 11 9 7 6 6 6 5 6 6 5 5 6 7
nan nan 36 34 33 32 28 24 24 24 22 21 21 24 24 22 21 22 24 22 20 19 18 20 20 19 19 18 17 17 18 19 20 21 22 23 23 22 22 21 21 20 19 18 16 17 15 14 13 12 11 9 8 7 7 6 5 7 8 7 6 6 6
nan nan nan nan 34 30 29 25 24 25 25 27 23 24 25 24 23 24 24 22 21 20 19 22 20 20 18 16 16 19 20 21 22 22 23 23 23 22 22 22 22 21 19 18 17 17 17 15 14 12 11 10 9 9 8 7 7 8 10 10 8 7 7
nan nan nan nan nan 34 31 27 25 27 28 26 24 24 23 24 24 23 21 22 23 23 21 22 23 21 18 15 17 20 21 21 22 23 22 22 23 23 22 22 23 22 19 18 17 16 17 16 13 12 11 10 10 9 8 7 7 9 13 12 10 8 7
44 nan nan nan nan 36 33 29 30 28 25 22 20 20 22 25 25 24 20 21 22 23 23 21 20 18 18 18 21 21 20 20 21 21 21 22 22 22 22 22 21 21 19 18 17 18 17 15 13 12 12 12 9 8 8 7 8 12 13 13 13 11 8
43 42 nan nan nan 28 27 28 29 26 22 22 19 17 18 23 24 22 21 23 24 26 23 20 19 20 21 21 22 20 19 20 20 20 21 21 21 22 23 21 20 19 19 17 17 18 16 14 13 13 13 11 9 7 7 7 10 14 14 14 14 13 11
42 37 32 nan nan nan 25 31 32 29 26 23 16 15 20 22 21 23 24 27 31 28 25 23 22 24 23 23 21 20 19 19 19 19 19 21 22 22 21 20 18 19 19 19 19 17 15 14 12 13 13 11 9 8 8 7 11 15 15 15 15 15 14
37 34 28 nan nan nan 28 34 36 34 33 26 21 25 27 26 25 28 27 30 29 27 27 25 25 25 24 23 22 21 19 18 17 18 19 20 21 20 19 18 19 19 19 18 16 16 15 14 13 13 12 10 9 9 8 8 10 16 17 16 17 17 16
32 32 29 22 21 24 28 29 32 32 30 27 26 26 27 25 25 24 25 29 30 28 26 25 24 25 25 24 21 18 17 17 17 17 18 18 18 17 17 18 18 18 19 18 16 16 16 15 14 13 12 10 9 8 7 9 13 16 17 18 17 19 16
32 31 28 25 23 27 32 33 36 36 39 33 28 29 28 28 27 26 28 30 30 30 28 26 24 24 23 21 20 18 18 17 17 17 17 17 16 15 15 17 17 18 19 17 16 16 15 14 14 14 13 11 10 8 9 11 15 18 18 19 20 20 15
33 30 28 26 26 31 32 33 35 39 35 34 31 31 33 32 30 30 31 31 32 30 28 24 21 22 22 21 20 20 19 18 18 17 17 16 13 13 15 16 17 17 18 16 14 13 13 14 14 13 13 11 10 10 11 11 17 22 20 21 23 20 15
38 34 31 29 24 25 27 31 33 35 36 35 35 36 38 36 33 32 32 33 31 27 24 21 20 21 21 20 21 21 20 19 18 17 16 14 13 13 13 13 14 15 15 14 13 12 14 14 13 12 13 11 10 12 11 12 17 24 22 24 25 20 15
43 39 36 30 28 24 26 31 35 32 32 31 34 37 37 35 32 30 32 31 30 26 22 20 19 19 20 20 20 20 20 19 18 16 14 13 12 12 12 13 13 12 12 12 12 12 12 12 12 11 12 12 11 12 12 13 15 24 26 26 26 23 17
46 43 39 35 31 26 21 23 25 25 25 31 36 36 35 33 31 31 33 33 29 24 20 20 21 21 21 21 20 19 18 17 15 13 11 11 11 11 11 11 11 11 10 10 10 10 10 9 10 10 11 11 12 12 12 14 15 21 28 27 27 23 18
51 48 44 39 37 31 25 23 25 25 26 30 30 31 32 32 31 32 33 32 26 22 24 25 24 23 22 20 18 16 15 14 14 12 12 11 12 12 11 11 10 10 9 10 10 9 8 9 9 10 10 11 10 11 11 13 16 16 26 28 28 24 21
54 52 51 46 39 35 30 30 31 29 27 26 26 29 31 30 30 31 32 27 25 28 29 29 25 22 20 18 17 16 14 14 13 14 14 13 12 11 11 12 11 11 11 11 10 9 8 7 6 7 7 8 8 9 11 13 17 17 19 26 27 26 22
58 56 53 49 42 35 32 31 33 34 32 30 30 31 32 30 31 31 30 28 33 33 32 30 26 24 22 22 20 19 17 16 15 15 15 14 14 14 13 14 14 13 13 11 11 12 9 7 8 8 6 6 7 7 8 12 14 18 18 22 27 26 24
58 57 54 50 46 38 32 32 36 38 40 39 38 35 33 32 33 33 33 38 38 33 31 29 28 26 25 24 23 21 19 20 19 18 18 18 18 18 17 17 17 16 14 13 12 12 11 12 11 11 11 10 9 9 10 13 16 14 20 21 24 25 24
63 61 57 53 48 42 35 35 41 44 45 45 43 38 36 36 36 38 42 41 37 35 33 32 31 31 29 28 26 24 24 23 22 22 22 21 21 20 21 20 20 20 20 17 16 16 15 15 15 14 14 14 13 13 14 18 17 16 17 22 21 22 24
62 59 57 54 49 42 38 40 45 49 48 48 45 41 39 42 44 44 42 40 39 38 37 35 36 36 35 32 31 30 28 26 26 26 26 25 25 24 24 25 24 24 24 21 21 19 19 18 18 16 16 16 16 18 21 22 21 20 19 20 23 22 23
62 59 55 51 48 46 42 43 47 51 51 48 45 43 41 41 42 41 40 39 39 39 38 38 39 38 36 34 36 37 35 33 32 32 32 30 29 27 28 29 29 28 26 25 24 21 21 21 20 19 19 19 21 22 23 24 24 24 24 24 24 24 24
62 59 56 53 49 46 44 44 48 52 53 50 47 45 43 42 42 43 43 41 39 38 37 38 39 39 39 39 40 40 40 39 40 38 38 37 39 45 47 43 35 32 30 29 28 27 27 26 27 27 26 25 25 25 25 26 26 27 29 28 29 28 27
64 60 57 54 49 48 46 47 48 51 53 51 49 47 45 44 43 44 44 44 43 42 42 42 41 40 39 38 38 38 39 39 39 38 39 42 45 48 51 54 53 51 44 37 43 40 36 35 31 30 30 28 27 29 28 28 31 39 39 37 36 33 31
65 61 57 55 52 52 49 49 50 52 53 52 51 50 48 46 45 45 45 45 44 44 44 44 44 43 42 41 40 40 40 40 39 39 42 44 46 46 47 47 50 57 56 50 46 44 43 40 37 37 36 35 34 43 49 47 48 50 49 48 47 45 46
67 64 59 56 55 53 52 51 52 53 53 52 52 52 51 50 47 45 45 45 45 46 46 47 46 46 46 46 46 46 45 44 43 41 44 46 45 45 45 45 44 46 53 54 51 53 53 51 49 46 42 35 36 46 47 51 53 54 54 55 57 58 58
Wind_Direction
208 212 220 234 248 261 276 279 282 257 25 42 34 21 6 355 323 240 234 238 231 212 210 206 202 195 183 186 193 185 161 160 172 175 177 176 175 175 171 162 148 147 139 123 111 107 109 107 101 96 95 88 84 78 71 67 66 69 69 70 73 76 73
212 215 225 238 249 257 267 266 266 250 240 247 39 26 18 3 332 257 231 239 245 229 218 207 204 199 198 198 198 191 175 167 179 186 184 186 191 187 184 174 158 155 148 133 124 121 120 113 107 99 93 86 76 72 60 53 50 51 61 61 69 74 73
217 222 229 236 243 251 265 264 270 270 270 258 294 27 25 3 331 292 236 231 237 229 221 214 206 203 205 206 205 189 184 180 188 190 185 184 183 173 181 179 172 166 150 142 141 142 142 133 126 119 107 94 76 49 42 34 27 27 33 40 53 69 70
222 228 235 245 250 253 262 268 278 273 258 284 332 4 3 327 305 272 242 237 236 229 227 221 215 210 210 212 210 203 190 184 190 192 184 183 185 186 187 190 188 176 173 154 153 160 164 164 149 152 150 129 97 18 7 9 4 3 1 10 40 59 65
223 227 226 228 236 239 243 247 254 254 254 286 297 288 308 284 289 270 251 239 239 238 229 227 215 212 210 212 210 205 198 192 195 196 194 190 189 191 187 184 193 180 171 172 176 183 187 190 175 189 230 254 288 294 329 330 339 331 341 359 12 45 58
223 227 226 226 236 244 247 252 263 264 251 254 285 291 285 296 284 308 284 252 235 228 226 228 223 219 217 215 213 211 206 199 200 203 201 196 194 190 186 188 190 189 184 186 189 190 202 202 200 217 247 274 305 324 321 324 321 322 324 322 340 17 38
224 230 225 222 233 242 250 248 248 240 231 223 229 239 252 269 295 298 277 264 255 249 246 242 236 230 223 221 217 218 216 210 208 207 204 197 192 187 187 192 193 194 190 198 197 207 214 221 224 235 249 264 276 307 304 311 308 301 303 308 327 346 3
225 229 224 226 234 243 250 247 235 224 221 221 227 237 260 265 266 283 296 281 266 250 245 249 243 232 230 228 225 225 221 215 211 210 205 199 193 190 193 195 198 200 202 200 206 214 218 226 227 235 248 253 263 273 288 289 306 305 295 305 317 327 294
221 228 226 225 235 243 250 246 234 227 232 240 245 249 263 255 260 277 291 280 263 257 255 251 246 238 232 229 228 230 226 221 216 216 211 203 196 192 195 198 201 205 202 198 203 215 219 223 224 233 242 240 238 251 260 272 285 292 296 302 314 316 307
213 219 220 219 220 230 239 241 235 227 230 233 234 235 245 243 243 250 261 272 268 273 263 247 238 239 239 234 230 232 230 227 222 223 217 206 199 197 199 203 207 208 203 204 208 216 224 222 223 230 237 236 236 240 248 259 272 287 301 311 312 306 305
nan 212 218 220 220 227 236 243 242 233 234 238 239 245 249 251 248 251 259 265 270 266 260 245 235 236 238 239 237 235 232 232 229 227 222 211 204 203 207 209 211 212 209 210 212 215 223 225 224 226 231 231 233 236 250 268 286 301 313 308 300 301 297
nan 207 212 216 220 227 231 231 230 229 231 233 243 251 253 253 256 253 252 261 259 258 253 247 237 235 236 239 239 236 238 237 234 231 229 221 212 210 213 215 216 215 214 215 217 220 222 227 226 227 231 232 230 235 248 265 283 298 310 314 298 291 291
nan 206 207 209 218 222 220 218 224 233 235 240 254 258 260 267 266 258 251 255 254 252 252 247 241 237 237 238 240 237 240 242 240 234 231 226 219 215 216 219 220 219 217 219 220 223 224 226 229 229 232 234 235 241 254 270 286 292 299 301 296 292 288
nan nan 204 210 213 217 220 218 223 229 235 242 250 256 261 266 267 262 256 259 252 250 248 242 244 243 240 238 236 236 241 241 239 235 232 229 226 221 220 221 223 223 221 223 225 223 224 228 234 235 236 236 240 250 259 273 285 293 293 292 297 293 289
nan nan 200 208 212 213 213 217 222 228 233 236 246 254 262 261 262 256 252 252 249 248 251 248 247 245 243 239 236 233 237 235 231 230 232 233 231 228 225 225 226 226 227 228 226 224 225 228 233 239 241 242 246 256 268 275 283 277 282 290 304 305 297
nan nan nan nan 209 207 204 207 219 227 231 234 241 249 257 257 257 259 262 260 260 255 250 245 246 247 245 240 234 231 234 232 228 229 231 233 234 233 230 227 227 229 230 230 229 228 228 229 233 238 245 250 255 262 267 271 262 278 305 299 293 302 291
nan nan nan nan nan 209 207 206 216 226 229 232 236 245 253 254 258 258 264 257 260 257 254 250 246 244 244 238 233 233 233 229 228 228 230 231 232 233 232 229 227 228 230 230 230 232 233 235 237 237 238 245 255 269 271 267 261 292 299 313 321 305 291
192 nan nan nan nan 208 211 211 218 226 232 235 237 243 246 249 254 255 259 258 262 260 254 251 248 247 240 234 233 234 235 232 232 230 229 230 232 233 233 230 228 230 232 233 235 236 237 237 238 233 232 235 247 263 266 263 275 293 302 311 321 317 300
194 195 nan nan nan 209 216 221 224 227 232 234 235 244 256 259 260 260 260 259 257 256 256 253 248 242 237 233 235 235 235 236 237 236 234 234 234 233 233 233 231 231 233 234 234 234 238 237 239 238 239 241 247 253 259 256 280 298 305 309 314 320 311
196 196 196 nan nan nan 220 227 225 223 227 229 236 252 253 259 262 256 252 249 248 257 251 248 240 236 236 234 236 236 237 238 239 239 237 236 236 236 236 236 235 235 234 233 236 240 240 244 242 239 243 249 251 247 248 260 275 299 305 306 310 314 304
192 196 194 nan nan nan 228 233 229 226 221 217 221 230 238 242 244 247 249 248 252 251 247 244 238 234 234 234 234 235 237 240 241 240 240 240 240 239 238 238 236 239 238 238 241 244 246 245 244 240 244 251 254 250 250 257 278 290 302 305 308 309 301
186 192 190 196 213 223 229 236 235 232 224 216 225 232 240 242 245 252 251 249 248 250 249 244 235 233 232 233 236 240 242 244 243 242 242 243 243 242 240 238 239 241 241 239 238 238 241 241 239 241 245 249 251 249 251 254 282 289 295 301 302 303 289
188 190 193 198 216 223 226 228 230 228 221 216 225 235 241 241 246 251 250 248 246 248 249 243 235 232 234 235 237 241 243 245 246 244 244 245 246 245 243 241 241 241 241 242 242 242 243 241 243 241 243 248 250 252 249 251 274 289 293 295 299 290 282
190 194 201 205 222 228 230 230 230 229 225 222 224 232 236 241 244 246 245 243 243 249 249 246 239 233 233 235 237 241 243 245 248 247 248 247 247 246 241 240 239 243 245 247 247 243 241 241 240 244 248 255 259 261 260 261 273 289 292 295 297 296 285
191 197 203 209 219 235 234 231 232 232 228 226 226 229 235 239 242 242 240 238 243 248 249 246 240 236 236 237 238 241 244 247 251 252 254 252 248 243 242 241 240 240 242 242 241 238 238 241 244 250 255 263 269 271 275 264 271 289 294 297 299 297 280
193 198 203 207 210 219 232 231 232 235 236 234 230 234 238 239 239 239 235 236 241 244 245 244 239 235 235 236 239 241 243 245 250 251 253 249 243 237 235 234 235 239 240 239 239 241 243 249 251 258 256 259 264 263 274 272 268 277 293 295 299 306 286
199 203 207 207 206 209 228 233 235 237 240 232 233 237 240 238 235 232 232 236 238 241 242 239 234 233 233 234 237 241 244 243 244 245 239 231 228 229 227 227 230 234 236 239 239 240 243 249 250 250 251 254 257 259 267 270 276 278 292 294 299 305 300
200 206 209 211 209 206 209 220 224 231 232 232 236 239 237 234 229 228 232 236 238 237 237 235 235 233 232 234 236 237 236 231 225 222 213 210 212 214 214 216 220 224 232 233 237 245 248 252 250 251 254 259 265 267 269 275 288 278 289 297 299 302 310
201 204 206 208 208 205 205 211 218 223 231 235 240 237 236 235 228 227 232 235 234 234 234 236 235 232 231 229 228 226 222 214 216 212 205 207 211 217 218 221 226 229 234 241 243 248 253 258 265 263 267 268 271 273 277 278 277 296 285 296 302 304 307
201 202 201 205 209 206 205 211 214 220 225 231 233 234 234 232 226 227 230 232 231 233 235 236 233 231 231 229 226 224 219 214 213 212 208 213 219 223 224 228 232 234 234 240 247 247 246 250 263 269 278 286 284 283 286 285 281 287 300 290 302 303 309
203 203 201 201 203 203 208 211 217 219 222 223 229 230 229 224 224 226 229 227 230 233 236 235 232 229 229 229 227 224 221 219 218 219 219 221 227 229 229 233 237 236 235 238 241 245 242 244 254 263 267 272 276 279 288 293 294 289 295 306 298 305 308
204 205 202 201 199 194 201 214 218 220 223 224 226 227 223 221 223 225 223 225 227 231 233 234 232 229 228 226 226 227 226 226 227 227 228 230 229 230 231 235 240 241 242 242 244 245 246 246 251 255 260 261 266 271 278 284 286 291 289 293 301 299 307
205 205 204 202 199 198 198 204 212 216 221 223 222 224 223 221 219 222 224 225 225 227 231 233 233 230 228 225 225 227 228 229 228 229 232 235 233 230 230 232 234 237 239 243 247 247 247 247 248 250 253 257 259 265 271 276 281 284 286 287 288 290 291
206 205 203 202 201 202 202 203 207 212 216 219 220 221 221 219 220 224 226 226 226 228 231 234 236 236 233 231 227 226 228 228 231 232 233 238 238 235 234 234 232 232 235 239 245 246 248 250 251 254 257 257 261 264 267 271 275 279 282 283 283 286 287
208 208 207 205 201 202 205 203 205 209 213 215 218 220 220 217 215 214 219 224 229 232 234 236 240 243 243 239 235 231 230 229 231 230 230 234 236 231 229 228 228 230 232 233 239 247 251 254 255 258 260 262 262 264 265 266 269 273 280 280 280 281 280
209 209 209 208 205 204 204 205 204 207 209 212 215 219 220 217 213 213 213 215 220 227 234 241 244 245 247 247 246 242 240 240 241 239 236 236 238 238 237 233 233 227 228 233 233 234 239 244 253 255 259 261 263 261 263 262 261 258 271 273 273 274 267
210 210 210 210 209 205 203 203 204 205 207 208 212 217 220 218 215 214 215 215 218 222 230 236 240 242 245 247 248 249 249 249 250 249 246 246 247 249 250 248 241 235 231 230 233 236 239 241 239 239 246 258 261 255 250 253 258 263 267 269 271 271 269
211 211 212 213 212 209 204 202 204 207 207 208 211 215 218 219 217 214 215 216 218 221 226 231 237 241 243 245 247 249 250 251 253 255 254 253 255 258 261 260 259 250 238 236 240 243 244 244 243 243 245 250 260 266 261 258 261 266 267 267 265 265 265